Flag for Belize Weather past 2 weeks in Belize City, Belize

Now
77 °F

Warm.


Feels Like: 78 °F
Forecast: 80 / 85 °F
Wind: No wind

Location: Belize / Phillip Goldston Intl. Airport

Current Time: May 28, 2015 at 6:43:29 AM

Latest Report: May 28, 2015 at 6:00 AM


Visibility: N/A

Pressure: 29.95 "Hg

Humidity: 94%

Dew point: 75 °F

Location of Belize CityLocation

Historic Weather in Belize City — Graph

°F

Belize City temperature yesterday

Maximum temperature yesterday: 88 °F (at 10:00 AM)
Minimum temperature yesterday: 81 °F (at 5:00 AM)
Average temperature yesterday: 85 °F

Past Weeks' High & Low Weather Summary

 TemperatureHumidityPressure
High90 °F (May 19, 12:00 PM)100% (May 23, 2:00 PM)30.06 "Hg (May 23, 2:00 PM)
Low77 °F (May 23, 2:00 PM)66% (May 13, 1:00 PM)29.89 "Hg (May 20, 5:00 PM)
Average85 °F76%29.97 "Hg
* Reported May 13 5:00 AM — May 28 5:00 AM, Belize City, Weather by CustomWeather, © 2015

Note: Actual official high and low records may vary slightly from our data, if they occured in-between our weather recording intervals... More about our weather records

Advertising

Belize City weather history for previous 24 hours

 ConditionsComfort  
Time TempWeatherWind HumidityBarometerVisibility
5:00 AM
Thu, May 28
79 °FPassing clouds.2 mph89%29.94 "HgN/A
8:00 PM
Wed, May 27
82 °FPassing clouds.7 mph79%29.95 "HgN/A
7:00 PM82 °FPassing clouds.6 mph84%29.94 "HgN/A
6:00 PM84 °FPassing clouds.8 mph74%29.93 "HgN/A
5:00 PM86 °FScattered clouds.8 mph75%29.93 "HgN/A
4:00 PM88 °FScattered clouds.10 mph70%29.93 "HgN/A
3:00 PM88 °FPartly sunny.12 mph70%29.93 "HgN/A
2:00 PM88 °FScattered clouds.10 mph70%29.95 "HgN/A
1:00 PM88 °FScattered clouds.10 mph70%29.97 "HgN/A
12:00 PM86 °FPartly sunny.10 mph75%29.99 "HgN/A
11:00 AM88 °FPartly sunny.13 mph70%29.99 "HgN/A
10:00 AM88 °FPartly sunny.10 mph70%30.00 "HgN/A
9:00 AM86 °FPartly sunny.12 mph75%30.00 "HgN/A
8:00 AM84 °FScattered clouds.8 mph79%29.99 "HgN/A
7:00 AM82 °FPassing clouds.8 mph84%29.98 "HgN/A
6:00 AM81 °FScattered clouds.7 mph84%29.97 "HgN/A
Weather by CustomWeather, © 2015

See weather overviewHow to use our weather pages